Location: Kellogg
(38.0159°N, 90.0546°W)
Time: 06:56:36
(UTC+00:00)

Courier 1B Rocket - Pass Details

Date: 17 September 2024
Orbit: 920 x 1201 km, 28.3° (Epoch: 12 October)

Event Time Altitude Azimuth Distance (km) Brightness Sun altitude
Rises 01:57:47 0° 262° (W) 3,863 9.1 -22.3°
Reaches altitude 10° 02:01:09 10° 248° (WSW) 2,956 8.1 -23.0°
Maximum altitude 02:06:27 22° 201° (SSW) 2,271 6.9 -23.9°
Enters shadow 02:09:03 18° 175° (S) 2,487 6.8 -24.4°
